Hourly Weather Roundup
Issued by NWS Central Illinois

Home | Current Version | Previous Version | Text Only | Print | Product List | Glossary On
Versions: 1 2 3 4 5 6 7 8 9 10 11 12 13 14 15 16 17 18 19 20 21 22 23 24 25 26 27 28 29 30 31 32 33 34 35 36 37 38 39 40 41 42 43 44 45 46 47 48 49 50
000
NZUS43 KILX 301710
HWRILX

AREA WEATHER ROUNDUP
NATIONAL WEATHER SERVICE, LINCOLN IL
1200 PM CDT SAT APR 30 2016


CITY           SKY/WX    TMP DP  RH WIND       PRES   REMARKS
BLOOMINGTON    LGT RAIN  54  54 100 SE17      29.87R FOG
CHAMPAIGN      LGT RAIN  55  55 100 E24G31    29.85F FOG
DANVILLE       LGT RAIN  52  51  95 E14G20    29.87F
DECATUR        LGT RAIN  57  54  89 SE18      29.83S FOG
EFFINGHAM      DRIZZLE   60  60 100 E14       29.85R
FLORA          CLOUDY    61  60  94 SE13G18   29.85F
GALESBURG      LGT RAIN  51  50  95 E16G25    29.80F
JACKSONVILLE   LGT RAIN  58  56  93 SE15G23   29.77F
LACON          RAIN      50  48  93 E14G20    29.86F
LAWRENCEVILLE  LGT RAIN  60  32  34 SE12      29.90R
LITCHFIELD     CLOUDY    59  57  93 SE12      29.78F
$$


CITY           SKY/WX    TMP DP  RH WIND       PRES   REMARKS
LINCOLN        RAIN      56  56  97 SE14G23   29.82F
MACOMB         CLOUDY    53  53  99 E16       29.79F
MATTOON        LGT RAIN  57  54  89 SE16      29.83F FOG
MT CARMEL AP   NOT AVBL
OLNEY-NOBLE AP CLOUDY    59  59 100 SE10      29.87S
PARIS          LGT RAIN  56  55  97 SE13G21   29.88F
PEORIA         LGT RAIN  54  51  90 E12       29.83F FOG
PONTIAC        LGT RAIN  51  51  98 E22G28    29.88F
RANTOUL        LGT RAIN  54  53  96 E14G22    29.87S
ROBINSON       LGT RAIN  57  56  97 SE10      29.90R
SPRINGFIELD    LGT RAIN  58  58 100 E14       29.79F FOG
TAYLORVILLE    CLOUDY    57  55  94 SE13      29.80F
$$

...REGIONAL REPORTS...


CITY           SKY/WX    TMP DP  RH WIND       PRES   REMARKS
CHICAGO O`HARE LGT RAIN  45  40  82 E15G23    30.00F
KANKAKEE       LGT RAIN  48  46  95 E20       29.93F
MOLINE         RAIN      50  47  89 E22G31    29.84S FOG
MOUNT STERLING CLOUDY    56  55  98 SE13G18   29.75F FOG
MOUNT VERNON   CLOUDY    61  55  82 E6        29.84F
PITTSFIELD     CLOUDY    59  58  96 SE10      29.76S
QUINCY         LGT RAIN  58  56  93 SE21G28   29.71F
ROCKFORD       LGT RAIN  49  43  80 E20G28    29.98F
$$


CITY           SKY/WX    TMP DP  RH WIND       PRES   REMARKS
BURLINGTON     HVY RAIN  52  32  46 E16G22    29.75F
CEDAR RAPIDS   RAIN      48  48 100 E23G31    29.81F FOG
DES MOINES     LGT RAIN  48  45  89 NE12      29.77S FOG
KIRKSVILLE     CLOUDY    54  52  93 E8        29.70F
OTTUMWA        LGT RAIN  49  48  97 E18       29.75F FOG
ST LOUIS       CLOUDY    66  61  82 S9        29.75F
$$


CITY           SKY/WX    TMP DP  RH WIND       PRES   REMARKS
TERRE HAUTE    LGT RAIN  57  55  93 SE17      29.87F FOG
EVANSVILLE     LGT RAIN  62  59  90 SE7       29.89S
INDIANAPOLIS   LGT RAIN  53  50  89 E9        29.94F FOG
LAFAYETTE      LGT RAIN  50  48  93 E15       29.94F FOG
MADISON        LGT RAIN  48  42  80 E15       30.02F
MILWAUKEE      CLOUDY    45  38  76 E15       30.07F
$$






USA.gov is the U.S. government's official web portal to all federal, state and local government web resources and services.